Tracking 31027 objects as of 19-Jul-2025
HD Live streaming from Space Station
objects crossing your sky now

ATLAS AGENA R/B(2)

Track ATLAS AGENA R/B(2) now!


NORAD ID: 15422
Int'l Code: 1977-038C
Perigee: 29,117.7 km
Apogee: 41,331.0 km
Inclination: 6.7 °
Period: 1,407.1 minutes
Semi major axis: 41595 km
RCS: Unknown
Launch date: May 23, 1977
Source: United States (US)
Launch site: AIR FORCE EASTERN TEST RANGE (AFETR)

Note: This is a ROCKET BODY
Your satellite tracking list
STARLINK-31879
Track 1 satellite(s)




NASA's NSSDC Master Catalog

Two Line Element Set (TLE):
1 15422U 77038C   25199.33090879 -.00000270  00000-0  00000-0 0  9994
2 15422   6.7467 330.1282 1468111 174.1033 188.0493  1.02337630 22828
Source of the keplerian elements: McCants